Regional Weather Roundup
Issued by NWS Sterling, VA

Home | Current Version | Previous Version | Text Only | Print | Product List | Glossary On
Versions: 1 2 3 4 5 6 7 8 9 10 11 12 13 14 15 16 17 18 19 20 21 22 23 24 25 26 27 28 29 30 31 32 33 34 35 36 37 38 39 40 41 42 43 44 45 46 47 48 49 50
000
ASUS41 KLWX 210710
RWRLWX

REGIONAL WEATHER ROUNDUP
NATIONAL WEATHER SERVICE BALTIMORE MD/WASHINGTON DC
300 AM EDT TUE OCT 21 2014

Note: "FAIR" indicates few or no clouds below 12,000 feet
with no significant weather and/or obstructions to visibility.
 TC=TEMPERATURE CELSIUS

 * =Non NWS site. Station does not report precipitation (e.g. rain,
    snow, etc.), thunder, or fog.

DCZ001-MDZ009-015-VAZ040>042-051-053>054-210800-
WASHINGTON METRO

CITY           SKY/WX    TMP DP  RH WIND       PRES   REMARKS
WASHINGTON NAT MOCLDY    57  49  74 SW5       29.89F
DULLES         MOCLDY    53  48  83 S3        29.88F
ANDREWS AFB    MOCLDY    57  48  73 S9        29.88F
FT BELVOIR     MOCLDY    52  50  93 SE1       29.89F FOG
QUANTICO       MOCLDY    57  47  69 SW6       29.90F
COLLEGE PARK*  MOCLDY    54  52  94 CALM      29.89S
LEESBURG*      MOCLDY    54  52  94 CALM      29.89F
MANASSAS*      CLOUDY    52  52 100 CALM      29.88F
GAITHERSBURG*  MOCLDY    52  48  87 CALM      29.92F

$$

MDZ006>007-011-014-210800-
BALTIMORE METRO

CITY           SKY/WX    TMP DP  RH WIND       PRES   REMARKS
BWI AIRPORT    MOCLDY    53  49  86 CALM      29.88F
MD SCIENCE CTR   N/A     56  48  74 MISG      29.89F
MARTIN STATE   DRIZZLE   54  54 100 CALM      29.91F
ANNAPOLIS      CLOUDY    58  47  66 SE6       29.88F
FORT MEADE*    MOCLDY    50  48  93 CALM      29.91F

$$

MDZ012-015-019>023-210800-
MARYLAND EASTERN SHORE

CITY           SKY/WX    TMP DP  RH WIND       PRES   REMARKS
OCEAN CITY     CLOUDY    56  51  84 SW3       29.93F
SALISBURY      CLOUDY    55  49  80 CALM      29.92F
BAY BRIDGE AP*   N/A     59  48  67 S3        29.90F
CAMBRIDGE*     CLOUDY    54  50  87 SE3       29.91F
EASTON*        CLOUDY    56  52  86 CALM      29.95S

$$

MDZ017>025-210800-
SOUTHERN MARYLAND

CITY           SKY/WX    TMP DP  RH WIND       PRES   REMARKS
PATUXENT RIVER CLOUDY    56  48  74 S7        29.90F
ST INIGOES     LGT RAIN  57  50  77 E3        29.90F
LEONARDTOWN*   CLOUDY    54  46  76 CALM      29.92F

$$

MDZ003>005-210800-
NORTH CENTRAL MARYLAND

CITY           SKY/WX    TMP DP  RH WIND       PRES   REMARKS
FREDERICK*     MOCLDY    54  50  87 CALM      29.92S FOG
HAGERSTOWN APT CLOUDY    53  49  86 CALM      29.87F
WESTMINSTER*   CLOUDY    54  50  87 CALM      29.88F

$$

MDZ501>502-210800-
WESTERN MARYLAND

CITY           SKY/WX    TMP DP  RH WIND       PRES   REMARKS
OAKLAND*       CLOUDY    45 N/A N/A W8        29.87F
CUMBERLAND*    MOCLDY    48  46  93 CALM      29.92S

$$

VAZ025>031-210800-
SHENANDOAH VALLEY

CITY           SKY/WX    TMP DP  RH WIND       PRES   REMARKS
WINCHESTER*    MOCLDY    52  46  82 CALM      29.88S
FRONT ROYAL*   CLOUDY    50  46  87 CALM      29.88S
LURAY*         FAIR      52  52 100 CALM      29.89S
NEW MARKET*    FAIR      50  48  92 CALM      29.89F
STAUNTON*      PTCLDY    52  46  79 S5        29.92S
WAYNESBORO*    FAIR      49  46  89 CALM      29.90F

$$

WVZ021-048>050-054>055-210800-
EASTERN WEST VIRGINIA PANHANDLE

CITY           SKY/WX    TMP DP  RH WIND       PRES   REMARKS
MARTINSBURG    CLOUDY    52  48  86 CALM      29.88F
PETERSBURG*    CLOUDY   N/A N/A N/A CALM      29.90S

$$

VAZ036>039-050-210800-
CENTRAL FOOTHILLS

CITY           SKY/WX    TMP DP  RH WIND       PRES   REMARKS
CHARLOTTESVILL MOCLDY    53  49  86 CALM      29.89F
CULPEPER*      CLOUDY    52  48  87 CALM      29.89F
ORANGE*        CLOUDY    52  48  87 S3        29.90F
GORDONSVILLE*  FAIR      51  48  90 CALM      29.89S
WARRENTON*     FAIR      54  52  94 CALM      29.88F

$$

VAZ055>057-210800-
NORTH AND CENTRAL PIEDMONT

CITY           SKY/WX    TMP DP  RH WIND       PRES   REMARKS
FREDERICKSBRG* MOCLDY    55  48  77 CALM      29.89F
STAFFORD*      MOCLDY    51  51 100 CALM      29.93F

$$

NCZ024-NYZ072-PAZ021-071-VAZ022-071-210800-
OTHER REGIONAL OBSERVATIONS

CITY           SKY/WX    TMP DP  RH WIND       PRES   REMARKS
NEW YORK CITY  MOCLDY    58  43  57 SW6       29.95F
PHILADELPHIA   CLOUDY    55  46  71 S3        29.92F
PITTSBURGH     LGT RAIN  50  49  96 SW6       29.85S
ROANOKE        PTCLDY    56  45  66 W14       29.94F
RICHMOND       CLOUDY    57  47  69 S3        29.91F
RALEIGH        CLOUDY    57  50  77 SW3       29.95F

$$

ANZ530>537-210800-
MARINE OBSERVATIONS

STATION/POSITION TIME  TEMP    WIND        PRES
                       AIR SEA DIR/SP/G
                 (UTC) (F)     (DEG/KT/KT) (MB)
THOMAS PT LIGHT  0700   60 63  180/ 10/ 11 1013.0F
BALT KEY BRIDGE  0700   57     190/  3/  4 1011.9F
COVE POINT       0700   59     240/ 10/ 12 1012.5F
LEWISETTA        0700   59 62  200/  4/  4 1012.4F
SOLOMONS ISLAND  0700      66                N/A
PINEY POINT      0700          180/  7/  9   N/A

$$



USA.gov is the U.S. government's official web portal to all federal, state and local government web resources and services.